Simultaneous Nadir Overpasses (SNOs) Predictions

Prediction of SNOs between METOP-B and TERRA Satellite Orbit:

Table of predicted SNOs for the next 14.0 days since TLE Epoch: 5/16/2015
Index Date (METOP-B) Time (METOP-B) Lat,Lon (METOP-B) SZA (METOP-B ) Date (TERRA) Time (TERRA) Lat,Lon (TERRA) SZA (TERRA ) Distance(km) Time Diff (sec)
1 05/18/2015 03:47:33 81.30, 170.12 64.82 05/18/2015 03:48:25 81.30, 170.24 64.86 1.97 52
2 05/18/2015 04:38:12 -81.31, -21.80 115.10 05/18/2015 04:37:51 -81.31, -21.87 115.12 1.22 21
3 05/20/2015 23:21:53 81.30,-123.36 64.23 05/20/2015 23:22:41 81.30,-123.31 64.26 0.87 48
4 05/21/2015 00:12:32 -81.31, 44.72 115.69 05/21/2015 00:12:07 -81.32, 44.61 115.71 1.92 25
5 05/23/2015 18:56:13 81.30, -56.92 63.67 05/23/2015 18:56:56 81.31, -56.73 63.72 3.28 43
6 05/
